TimeCDT,TemperatureF,Dew PointF,Humidity,Sea Level PressureIn,VisibilityMPH,Wind Direction,Wind SpeedMPH,Gust SpeedMPH,PrecipitationIn,Events,Conditions,WindDirDegrees,DateUTC
12:15 AM,53.6,44.6,72,29.38,10.0,SSE,5.8,-,N/A,,Clear,160,2012-10-17 05:15:00
12:35 AM,53.6,44.6,72,29.38,10.0,SSE,8.1,-,N/A,,Clear,150,2012-10-17 05:35:00
12:55 AM,53.6,44.6,72,29.38,10.0,South,9.2,-,N/A,,Clear,180,2012-10-17 05:55:00
1:15 AM,53.6,44.6,72,29.37,10.0,SSE,8.1,-,N/A,,Clear,150,2012-10-17 06:15:00
1:35 AM,53.6,44.6,72,29.37,10.0,South,11.5,-,N/A,,Clear,170,2012-10-17 06:35:00
1:55 AM,55.4,44.6,67,29.36,10.0,South,10.4,-,N/A,,Clear,180,2012-10-17 06:55:00
2:15 AM,57.2,46.4,67,29.35,10.0,South,11.5,-,N/A,,Clear,170,2012-10-17 07:15:00
2:35 AM,55.4,46.4,72,29.36,10.0,South,10.4,-,N/A,,Partly Cloudy,190,2012-10-17 07:35:00
2:55 AM,55.4,46.4,72,29.34,10.0,South,12.7,-,N/A,,Mostly Cloudy,190,2012-10-17 07:55:00
3:15 AM,55.4,46.4,72,29.32,10.0,South,9.2,-,N/A,,Scattered Clouds,180,2012-10-17 08:15:00
3:35 AM,57.2,46.4,67,29.31,10.0,SSE,5.8,-,N/A,,Mostly Cloudy,150,2012-10-17 08:35:00
3:55 AM,57.2,46.4,67,29.31,10.0,South,9.2,-,N/A,,Overcast,180,2012-10-17 08:55:00
4:15 AM,57.2,46.4,67,29.29,10.0,SSE,13.8,-,N/A,,Overcast,160,2012-10-17 09:15:00
4:35 AM,57.2,46.4,67,29.27,10.0,SSE,16.1,-,N/A,,Overcast,160,2012-10-17 09:35:00
4:55 AM,57.2,48.2,72,29.27,10.0,South,16.1,-,N/A,,Overcast,170,2012-10-17 09:55:00
5:15 AM,59.0,48.2,67,29.26,10.0,South,16.1,-,N/A,,Overcast,170,2012-10-17 10:15:00
5:35 AM,59.0,48.2,67,29.25,10.0,South,16.1,-,N/A,,Overcast,170,2012-10-17 10:35:00
5:55 AM,59.0,48.2,67,29.25,10.0,South,13.8,-,N/A,,Scattered Clouds,190,2012-10-17 10:55:00
6:15 AM,59.0,48.2,67,29.24,10.0,South,15.0,-,N/A,,Partly Cloudy,190,2012-10-17 11:15:00
6:35 AM,59.0,48.2,67,29.25,10.0,SSW,16.1,-,N/A,,Mostly Cloudy,200,2012-10-17 11:35:00
6:55 AM,59.0,48.2,67,29.26,10.0,SSW,17.3,-,N/A,,Partly Cloudy,210,2012-10-17 11:55:00
7:15 AM,60.8,48.2,63,29.27,10.0,SW,19.6,28.8,N/A,,Clear,230,2012-10-17 12:15:00
7:35 AM,59.0,48.2,67,29.27,10.0,WSW,18.4,27.6,N/A,,Partly Cloudy,250,2012-10-17 12:35:00
7:55 AM,59.0,50.0,72,29.27,6.0,West,24.2,-,N/A,,Haze,260,2012-10-17 12:55:00
8:15 AM,59.0,51.8,77,29.27,10.0,West,18.4,-,N/A,,Clear,260,2012-10-17 13:15:00
8:35 AM,59.0,51.8,77,29.28,10.0,WSW,20.7,-,N/A,,Clear,250,2012-10-17 13:35:00
8:55 AM,59.0,51.8,77,29.30,10.0,WSW,25.3,-,N/A,,Partly Cloudy,250,2012-10-17 13:55:00
9:15 AM,59.0,51.8,77,29.31,10.0,West,23.0,29.9,N/A,,Light Drizzle,260,2012-10-17 14:15:00
9:35 AM,57.2,53.6,88,29.32,4.0,West,21.9,27.6,N/A,Rain,Light Rain,270,2012-10-17 14:35:00
9:55 AM,55.4,53.6,94,29.32,10.0,WSW,15.0,21.9,N/A,,Light Drizzle,250,2012-10-17 14:55:00
10:15 AM,55.4,51.8,88,29.33,10.0,West,19.6,27.6,N/A,,Scattered Clouds,270,2012-10-17 15:15:00
10:35 AM,55.4,50.0,82,29.35,10.0,West,19.6,28.8,N/A,,Scattered Clouds,260,2012-10-17 15:35:00
10:55 AM,55.4,50.0,82,29.35,10.0,West,16.1,24.2,N/A,,Partly Cloudy,260,2012-10-17 15:55:00
11:15 AM,55.4,48.2,77,29.36,10.0,West,24.2,-,N/A,,Mostly Cloudy,270,2012-10-17 16:15:00
11:35 AM,55.4,46.4,72,29.37,10.0,West,23.0,29.9,N/A,,Mostly Cloudy,270,2012-10-17 16:35:00
11:55 AM,57.2,46.4,67,29.36,10.0,West,21.9,28.8,N/A,,Scattered Clouds,270,2012-10-17 16:55:00
12:15 PM,57.2,42.8,59,29.37,10.0,West,21.9,29.9,N/A,,Scattered Clouds,270,2012-10-17 17:15:00
12:35 PM,59.0,41.0,51,29.36,10.0,West,24.2,34.5,N/A,,Clear,280,2012-10-17 17:35:00
12:55 PM,57.2,39.2,51,29.36,10.0,West,27.6,35.7,N/A,,Clear,280,2012-10-17 17:55:00
1:15 PM,57.2,37.4,48,29.36,10.0,West,25.3,-,N/A,,Clear,270,2012-10-17 18:15:00
1:35 PM,60.8,37.4,42,29.35,10.0,West,25.3,32.2,N/A,,Clear,270,2012-10-17 18:35:00
1:55 PM,59.0,37.4,45,29.34,10.0,West,23.0,31.1,N/A,,Clear,270,2012-10-17 18:55:00
2:15 PM,57.2,37.4,48,29.34,10.0,West,28.8,41.4,N/A,Rain,Light Rain,270,2012-10-17 19:15:00
2:35 PM,59.0,37.4,45,29.35,10.0,West,28.8,35.7,N/A,,Scattered Clouds,280,2012-10-17 19:35:00
2:55 PM,57.2,37.4,48,29.35,10.0,West,26.5,38.0,N/A,,Mostly Cloudy,280,2012-10-17 19:55:00
3:15 PM,55.4,37.4,51,29.35,10.0,West,27.6,35.7,N/A,,Light Drizzle,280,2012-10-17 20:15:00
3:35 PM,55.4,39.2,54,29.35,10.0,West,26.5,34.5,N/A,,Overcast,270,2012-10-17 20:35:00
3:55 PM,55.4,39.2,54,29.36,10.0,West,24.2,33.4,N/A,,Light Drizzle,270,2012-10-17 20:55:00
4:15 PM,53.6,39.2,58,29.36,10.0,WNW,24.2,32.2,N/A,,Overcast,290,2012-10-17 21:15:00
4:35 PM,53.6,39.2,58,29.37,10.0,WNW,25.3,33.4,N/A,,Overcast,290,2012-10-17 21:35:00
4:55 PM,51.8,39.2,62,29.37,10.0,West,25.3,32.2,N/A,,Overcast,280,2012-10-17 21:55:00
5:15 PM,51.8,39.2,62,29.38,10.0,WNW,27.6,38.0,N/A,,Light Drizzle,290,2012-10-17 22:15:00
5:35 PM,50.0,41.0,71,29.40,10.0,WNW,23.0,35.7,N/A,,Overcast,290,2012-10-17 22:35:00
5:55 PM,50.0,39.2,66,29.40,10.0,WNW,25.3,32.2,N/A,,Overcast,290,2012-10-17 22:55:00
6:15 PM,50.0,39.2,66,29.41,10.0,WNW,24.2,31.1,N/A,,Overcast,290,2012-10-17 23:15:00
6:35 PM,50.0,39.2,66,29.42,10.0,West,17.3,26.5,N/A,,Overcast,280,2012-10-17 23:35:00
6:55 PM,50.0,37.4,62,29.43,10.0,WNW,23.0,34.5,N/A,,Overcast,290,2012-10-17 23:55:00
7:15 PM,48.2,39.2,71,29.43,10.0,WNW,17.3,27.6,N/A,,Overcast,290,2012-10-18 00:15:00
7:35 PM,50.0,37.4,62,29.42,10.0,West,21.9,33.4,N/A,,Overcast,280,2012-10-18 00:35:00
7:55 PM,48.2,37.4,66,29.43,10.0,WNW,23.0,31.1,N/A,,Mostly Cloudy,290,2012-10-18 00:55:00
8:15 PM,48.2,37.4,66,29.44,10.0,WNW,20.7,29.9,N/A,,Overcast,290,2012-10-18 01:15:00
8:35 PM,48.2,37.4,66,29.43,10.0,WNW,20.7,27.6,N/A,,Overcast,290,2012-10-18 01:35:00
8:55 PM,48.2,37.4,66,29.42,10.0,West,21.9,-,N/A,,Overcast,280,2012-10-18 01:55:00
9:15 PM,48.2,37.4,66,29.42,10.0,NW,20.7,33.4,N/A,,Overcast,310,2012-10-18 02:15:00
9:35 PM,46.4,35.6,66,29.41,10.0,WNW,23.0,32.2,N/A,,Overcast,300,2012-10-18 02:35:00
9:55 PM,46.4,35.6,66,29.41,10.0,WNW,24.2,32.2,N/A,,Overcast,300,2012-10-18 02:55:00
10:15 PM,46.4,35.6,66,29.40,10.0,NW,25.3,31.1,N/A,,Overcast,310,2012-10-18 03:15:00
10:35 PM,46.4,33.8,62,29.40,10.0,WNW,19.6,32.2,N/A,,Overcast,300,2012-10-18 03:35:00
10:55 PM,46.4,33.8,62,29.40,10.0,WNW,27.6,38.0,N/A,,Overcast,300,2012-10-18 03:55:00
11:15 PM,46.4,33.8,62,29.40,10.0,WNW,25.3,35.7,N/A,,Overcast,300,2012-10-18 04:15:00
11:35 PM,46.4,35.6,66,29.39,10.0,WNW,23.0,34.5,N/A,,Overcast,300,2012-10-18 04:35:00
11:55 PM,46.4,35.6,66,29.39,10.0,WNW,21.9,34.5,N/A,,Overcast,300,2012-10-18 04:55:00